Location: Ayer Observatory
(42.2600°N, 71.0700°W)
Time: 21:32:06
(UTC-04:00)

LO-87 - Visible Passes

Search period start: 19 August 2019 00:00
Search period end: 29 August 2019 00:00
Orbit: 473 x 494 km, 97.4° (Epoch: 19 August)

Date Brightness Start Highest point End Pass type
(mag) Time Alt. Az. Time Alt. Az. Time Alt. Az.
19 Aug ? 23:59:14 11° NNW 23:59:14 11° NNW 23:59:26 10° NNW visible
20 Aug ? 23:34:29 13° N 23:34:29 13° N 23:34:53 10° N visible
21 Aug ? 23:09:44 12° N 23:09:44 12° N 23:10:00 10° N visible
24 Aug ? 23:29:48 10° N 23:29:48 10° N 23:29:51 10° N visible
